This demonstration page uses our WeatherBlox Daily Observations layout. Learn more.

Left ArrowRight Arrow

38.20091, -84.87328

Hourly Observations for May 11, 2020

Temp ( °F °C ) Dew Point ( °F °C ) Humidity (%) Winds ( mph kmh ) Pressure ( in mb ) Visibility ( mi km ) Precip ( " mm )
12:53 am 00:53 Clear 47 8.3 32 0 56 56 W 8 13 30.11 1020 10 16 0.00 0.00
1:53 am 01:53 Clear 46 7.8 32 0 58 58 WNW 10 17 30.12 1020 10 16 0.00 0.00
2:53 am 02:53 Clear 44 6.7 32 0 63 63 WNW 10 17 30.14 1021 10 16 0.00 0.00
3:53 am 03:53 Clear 41 5 32 0 70 70 NW 6 9 30.15 1021 10 16 0.00 0.00
4:53 am 04:53 Clear 40 4.4 30 -1.1 68 68 NW 5 7 30.17 1022 10 16 0.00 0.00
5:53 am 05:53 Clear 38 3.3 30 -1.1 73 73 Calm 30.18 1022 10 16 0.00 0.00
6:53 am 06:53 Cloudy 38 3.3 31 -0.6 76 76 WNW 5 7 30.19 1022 10 16 0.00 0.00
7:53 am 07:53 Cloudy 40 4.4 32 0 73 73 WNW 7 11 30.21 1023 10 16 0.00 0.00
8:53 am 08:53 Partly Cloudy 44 6.7 33 0.6 65 65 W 5 7 30.22 1024 10 16 0.00 0.00
9:53 am 09:53 Mostly Cloudy 47 8.3 33 0.6 59 59 N 5 7 30.23 1024 10 16 0.00 0.00
10:53 am 10:53 Cloudy 47 8.3 32 0 56 56 WNW 9 15 30.24 1024 10 16 0.00 0.00
11:53 am 11:53 Cloudy 48 8.9 32 0 54 54 W 10 17 30.24 1024 10 16 0.00 0.00
12:53 pm 12:53 Cloudy 49 9.4 30 -1.1 48 48 W 8 13 30.25 1024 10 16 0.00 0.00
1:53 pm 13:53 Cloudy 50 10 31 -0.6 48 48 NW 13 20 30.23 1024 10 16 0.00 0.00
2:53 pm 14:53 Cloudy 50 10 28 -2.2 43 43 WNW 9 15 30.23 1024 10 16 0.00 0.00
3:53 pm 15:53 Cloudy 51 10.6 30 -1.1 44 44 WNW 9 15 30.23 1024 10 16 0.00 0.00
4:53 pm 16:53 Cloudy 51 10.6 30 -1.1 44 44 W 6 9 30.23 1024 10 16 0.00 0.00
5:53 pm 17:53 Cloudy 51 10.6 29 -1.7 43 43 WNW 8 13 30.23 1024 10 16 0.00 0.00
6:53 pm 18:53 Cloudy 51 10.6 30 -1.1 44 44 NW 5 7 30.22 1024 10 16 0.00 0.00
7:53 pm 19:53 Cloudy 51 10.6 32 0 48 48 NW 3 6 30.22 1023 10 16 0.00 0.00
8:53 pm 20:53 Cloudy 49 9.4 32 0 52 52 Calm 30.22 1023 10 16 0.00 0.00
9:53 pm 21:53 Cloudy 47 8.3 37 2.8 69 69 Calm 30.22 1024 10 16 0.00 0.00
10:53 pm 22:53 Cloudy 45 7.2 38 3.3 77 77 Calm 30.23 1024 10 16 0.00 0.00
11:53 pm 23:53 Cloudy 45 7.2 37 2.8 74 74 Calm 30.22 1023 10 16 0.00 0.00

Powered by AerisWeather